owner,sensor,date,latitude,longitude,air_pressure(mBar),qcFlag 
LOOP,urn:ioos:station:wmo:lopl1:1,2018-03-01T00:05:00Z,28.8850,-90.0250,1013.1,1111122 
LOOP,urn:ioos:station:wmo:lopl1:1,2018-03-01T01:05:00Z,28.8850,-90.0250,1013.1,1111122 
LOOP,urn:ioos:station:wmo:lopl1:1,2018-03-01T02:05:00Z,28.8850,-90.0250,1013.1,1111122 
LOOP,urn:ioos:station:wmo:lopl1:1,2018-03-01T03:15:00Z,28.8850,-90.0250,1013.1,1111122 
LOOP,urn:ioos:station:wmo:lopl1:1,2018-03-01T04:15:00Z,28.8850,-90.0250,1013.1,1111122 
LOOP,urn:ioos:station:wmo:lopl1:1,2018-03-01T05:15:00Z,28.8850,-90.0250,1012.1,1111122 
LOOP,urn:ioos:station:wmo:lopl1:1,2018-03-01T06:15:00Z,28.8850,-90.0250,1012.1,1111122 
LOOP,urn:ioos:station:wmo:lopl1:1,2018-03-01T07:15:00Z,28.8850,-90.0250,1012.1,1111122 
LOOP,urn:ioos:station:wmo:lopl1:1,2018-03-01T08:15:00Z,28.8850,-90.0250,1011.1,1111122 
LOOP,urn:ioos:station:wmo:lopl1:1,2018-03-01T09:15:00Z,28.8850,-90.0250,1010.1,1111122 
LOOP,urn:ioos:station:wmo:lopl1:1,2018-03-01T10:15:00Z,28.8850,-90.0250,1010.1,1111122 
LOOP,urn:ioos:station:wmo:lopl1:1,2018-03-01T11:15:00Z,28.8850,-90.0250,1011.1,1111122 
LOOP,urn:ioos:station:wmo:lopl1:1,2018-03-01T12:15:00Z,28.8850,-90.0250,1011.1,1111122 
LOOP,urn:ioos:station:wmo:lopl1:1,2018-03-01T13:15:00Z,28.8850,-90.0250,1013.1,1111122 
LOOP,urn:ioos:station:wmo:lopl1:1,2018-03-01T14:15:00Z,28.8850,-90.0250,1013.1,1111122 
LOOP,urn:ioos:station:wmo:lopl1:1,2018-03-01T15:15:00Z,28.8850,-90.0250,1014.1,1111122 
LOOP,urn:ioos:station:wmo:lopl1:1,2018-03-01T16:15:00Z,28.8850,-90.0250,1015.1,1111122 
LOOP,urn:ioos:station:wmo:lopl1:1,2018-03-01T17:15:00Z,28.8850,-90.0250,1015.1,1111122 
LOOP,urn:ioos:station:wmo:lopl1:1,2018-03-01T18:15:00Z,28.8850,-90.0250,1014.1,1111122 
LOOP,urn:ioos:station:wmo:lopl1:1,2018-03-01T19:15:00Z,28.8850,-90.0250,1014.1,1111122 
LOOP,urn:ioos:station:wmo:lopl1:1,2018-03-01T20:20:00Z,28.8850,-90.0250,1014.1,1111122 
LOOP,urn:ioos:station:wmo:lopl1:1,2018-03-01T21:20:00Z,28.8850,-90.0250,1014.1,1111122 
LOOP,urn:ioos:station:wmo:lopl1:1,2018-03-01T22:20:00Z,28.8850,-90.0250,1014.1,1111122 
LOOP,urn:ioos:station:wmo:lopl1:1,2018-03-01T23:20:00Z,28.8850,-90.0250,1015.1,1111122 
LOOP,urn:ioos:station:wmo:lopl1:1,2018-03-02T00:20:00Z,28.8850,-90.0250,1015.1,1111122 
LOOP,urn:ioos:station:wmo:lopl1:1,2018-03-02T01:20:00Z,28.8850,-90.0250,1016.1,1111122 
LOOP,urn:ioos:station:wmo:lopl1:1,2018-03-02T02:20:00Z,28.8850,-90.0250,1017.1,1111122 
LOOP,urn:ioos:station:wmo:lopl1:1,2018-03-02T03:20:00Z,28.8850,-90.0250,1018.1,1111122 
LOOP,urn:ioos:station:wmo:lopl1:1,2018-03-02T04:20:00Z,28.8850,-90.0250,1018.1,1111122 
LOOP,urn:ioos:station:wmo:lopl1:1,2018-03-02T05:20:00Z,28.8850,-90.0250,1019.1,1111122 
LOOP,urn:ioos:station:wmo:lopl1:1,2018-03-02T06:20:00Z,28.8850,-90.0250,1019.1,1111122 
LOOP,urn:ioos:station:wmo:lopl1:1,2018-03-02T07:20:00Z,28.8850,-90.0250,1019.1,1111122 
LOOP,urn:ioos:station:wmo:lopl1:1,2018-03-02T08:20:00Z,28.8850,-90.0250,1019.1,1111122 
LOOP,urn:ioos:station:wmo:lopl1:1,2018-03-02T09:20:00Z,28.8850,-90.0250,1019.1,1111122 
LOOP,urn:ioos:station:wmo:lopl1:1,2018-03-02T10:20:00Z,28.8850,-90.0250,1020.1,1111122 
LOOP,urn:ioos:station:wmo:lopl1:1,2018-03-02T11:20:00Z,28.8850,-90.0250,1020.1,1111122 
LOOP,urn:ioos:station:wmo:lopl1:1,2018-03-02T12:20:00Z,28.8850,-90.0250,1020.1,1111122 
LOOP,urn:ioos:station:wmo:lopl1:1,2018-03-02T13:20:00Z,28.8850,-90.0250,1021.1,1111122 
LOOP,urn:ioos:station:wmo:lopl1:1,2018-03-02T14:20:00Z,28.8850,-90.0250,1023.1,1111122 
LOOP,urn:ioos:station:wmo:lopl1:1,2018-03-02T15:20:00Z,28.8850,-90.0250,1023.1,1111122 
LOOP,urn:ioos:station:wmo:lopl1:1,2018-03-02T16:20:00Z,28.8850,-90.0250,1023.1,1111122 
LOOP,urn:ioos:station:wmo:lopl1:1,2018-03-02T17:20:00Z,28.8850,-90.0250,1023.1,1111122 
LOOP,urn:ioos:station:wmo:lopl1:1,2018-03-02T18:20:00Z,28.8850,-90.0250,1023.1,1111122 
LOOP,urn:ioos:station:wmo:lopl1:1,2018-03-02T19:20:00Z,28.8850,-90.0250,1023.1,1111122 
LOOP,urn:ioos:station:wmo:lopl1:1,2018-03-02T20:20:00Z,28.8850,-90.0250,1022.1,1111122 
LOOP,urn:ioos:station:wmo:lopl1:1,2018-03-02T21:20:00Z,28.8850,-90.0250,1022.1,1111122 
LOOP,urn:ioos:station:wmo:lopl1:1,2018-03-02T22:20:00Z,28.8850,-90.0250,1022.1,1111122 
LOOP,urn:ioos:station:wmo:lopl1:1,2018-03-02T23:20:00Z,28.8850,-90.0250,1023.1,1111122 
LOOP,urn:ioos:station:wmo:lopl1:1,2018-03-03T00:20:00Z,28.8850,-90.0250,1023.1,1111122 
LOOP,urn:ioos:station:wmo:lopl1:1,2018-03-03T02:05:00Z,28.8850,-90.0250,1024.1,11111222 
LOOP,urn:ioos:station:wmo:lopl1:1,2018-03-03T02:25:00Z,28.8850,-90.0250,1024.1,1111122 
LOOP,urn:ioos:station:wmo:lopl1:1,2018-03-03T03:25:00Z,28.8850,-90.0250,1024.1,1111122 
LOOP,urn:ioos:station:wmo:lopl1:1,2018-03-03T04:25:00Z,28.8850,-90.0250,1024.1,1111122 
LOOP,urn:ioos:station:wmo:lopl1:1,2018-03-03T05:25:00Z,28.8850,-90.0250,1023.1,1111122 
LOOP,urn:ioos:station:wmo:lopl1:1,2018-03-03T06:25:00Z,28.8850,-90.0250,1023.1,1111122 
LOOP,urn:ioos:station:wmo:lopl1:1,2018-03-03T07:25:00Z,28.8850,-90.0250,1023.1,1111122 
LOOP,urn:ioos:station:wmo:lopl1:1,2018-03-03T08:25:00Z,28.8850,-90.0250,1023.1,1111122 
LOOP,urn:ioos:station:wmo:lopl1:1,2018-03-03T09:25:00Z,28.8850,-90.0250,1022.1,1111122 
LOOP,urn:ioos:station:wmo:lopl1:1,2018-03-03T10:25:00Z,28.8850,-90.0250,1022.1,1111122 
LOOP,urn:ioos:station:wmo:lopl1:1,2018-03-03T11:25:00Z,28.8850,-90.0250,1022.1,1111122 
LOOP,urn:ioos:station:wmo:lopl1:1,2018-03-03T12:25:00Z,28.8850,-90.0250,1023.1,1111122 
LOOP,urn:ioos:station:wmo:lopl1:1,2018-03-03T13:25:00Z,28.8850,-90.0250,1024.1,1111122 
LOOP,urn:ioos:station:wmo:lopl1:1,2018-03-03T14:25:00Z,28.8850,-90.0250,1024.1,1111122 
LOOP,urn:ioos:station:wmo:lopl1:1,2018-03-03T15:25:00Z,28.8850,-90.0250,1025.1,1111122 
LOOP,urn:ioos:station:wmo:lopl1:1,2018-03-03T16:25:00Z,28.8850,-90.0250,1026.1,1111122 
LOOP,urn:ioos:station:wmo:lopl1:1,2018-03-03T17:25:00Z,28.8850,-90.0250,1025.1,1111122 
LOOP,urn:ioos:station:wmo:lopl1:1,2018-03-03T18:25:00Z,28.8850,-90.0250,1025.1,1111122 
LOOP,urn:ioos:station:wmo:lopl1:1,2018-03-03T19:25:00Z,28.8850,-90.0250,1024.1,1111122 
LOOP,urn:ioos:station:wmo:lopl1:1,2018-03-03T20:25:00Z,28.8850,-90.0250,1023.1,1111122 
LOOP,urn:ioos:station:wmo:lopl1:1,2018-03-03T21:25:00Z,28.8850,-90.0250,1023.1,1111122 
LOOP,urn:ioos:station:wmo:lopl1:1,2018-03-03T22:25:00Z,28.8850,-90.0250,1023.1,1111122 
LOOP,urn:ioos:station:wmo:lopl1:1,2018-03-03T23:25:00Z,28.8850,-90.0250,1023.1,1111122 
LOOP,urn:ioos:station:wmo:lopl1:1,2018-03-04T00:25:00Z,28.8850,-90.0250,1023.1,1111122 
LOOP,urn:ioos:station:wmo:lopl1:1,2018-03-04T01:25:00Z,28.8850,-90.0250,1022.1,1111122 
LOOP,urn:ioos:station:wmo:lopl1:1,2018-03-04T02:25:00Z,28.8850,-90.0250,1023.1,1111122 
LOOP,urn:ioos:station:wmo:lopl1:1,2018-03-04T03:30:00Z,28.8850,-90.0250,1023.1,1111122 
LOOP,urn:ioos:station:wmo:lopl1:1,2018-03-04T04:30:00Z,28.8850,-90.0250,1022.1,1111122 
LOOP,urn:ioos:station:wmo:lopl1:1,2018-03-04T05:30:00Z,28.8850,-90.0250,1022.1,1111122 
LOOP,urn:ioos:station:wmo:lopl1:1,2018-03-04T06:30:00Z,28.8850,-90.0250,1022.1,1111122 
LOOP,urn:ioos:station:wmo:lopl1:1,2018-03-04T07:30:00Z,28.8850,-90.0250,1022.1,1111122 
LOOP,urn:ioos:station:wmo:lopl1:1,2018-03-04T08:30:00Z,28.8850,-90.0250,1021.1,1111122 
LOOP,urn:ioos:station:wmo:lopl1:1,2018-03-04T09:30:00Z,28.8850,-90.0250,1021.1,1111122 
LOOP,urn:ioos:station:wmo:lopl1:1,2018-03-04T10:30:00Z,28.8850,-90.0250,1021.1,1111122 
LOOP,urn:ioos:station:wmo:lopl1:1,2018-03-04T11:30:00Z,28.8850,-90.0250,1021.1,1111122 
LOOP,urn:ioos:station:wmo:lopl1:1,2018-03-04T12:30:00Z,28.8850,-90.0250,1022.1,1111122 
LOOP,urn:ioos:station:wmo:lopl1:1,2018-03-04T13:30:00Z,28.8850,-90.0250,1022.1,1111122 
LOOP,urn:ioos:station:wmo:lopl1:1,2018-03-04T14:30:00Z,28.8850,-90.0250,1023.1,1111122 
LOOP,urn:ioos:station:wmo:lopl1:1,2018-03-04T15:30:00Z,28.8850,-90.0250,1023.1,1111122 
LOOP,urn:ioos:station:wmo:lopl1:1,2018-03-04T16:30:00Z,28.8850,-90.0250,1023.1,1111122 
LOOP,urn:ioos:station:wmo:lopl1:1,2018-03-04T17:40:00Z,28.8850,-90.0250,1022.1,1111122 
LOOP,urn:ioos:station:wmo:lopl1:1,2018-03-04T18:40:00Z,28.8850,-90.0250,1022.1,1111122 
LOOP,urn:ioos:station:wmo:lopl1:1,2018-03-04T19:40:00Z,28.8850,-90.0250,1021.1,1111122 
LOOP,urn:ioos:station:wmo:lopl1:1,2018-03-04T20:40:00Z,28.8850,-90.0250,1020.1,1111122 
LOOP,urn:ioos:station:wmo:lopl1:1,2018-03-04T21:40:00Z,28.8850,-90.0250,1020.1,1111122 
LOOP,urn:ioos:station:wmo:lopl1:1,2018-03-04T22:40:00Z,28.8850,-90.0250,1020.1,1111122 
LOOP,urn:ioos:station:wmo:lopl1:1,2018-03-04T23:40:00Z,28.8850,-90.0250,1020.1,1111122 
LOOP,urn:ioos:station:wmo:lopl1:1,2018-03-05T00:40:00Z,28.8850,-90.0250,1020.1,1111122 
LOOP,urn:ioos:station:wmo:lopl1:1,2018-03-05T01:40:00Z,28.8850,-90.0250,1020.1,1111122 
LOOP,urn:ioos:station:wmo:lopl1:1,2018-03-05T02:40:00Z,28.8850,-90.0250,1020.1,1111122 
LOOP,urn:ioos:station:wmo:lopl1:1,2018-03-05T03:40:00Z,28.8850,-90.0250,1020.1,1111122 
LOOP,urn:ioos:station:wmo:lopl1:1,2018-03-05T04:40:00Z,28.8850,-90.0250,1019.1,1111122 
LOOP,urn:ioos:station:wmo:lopl1:1,2018-03-05T05:40:00Z,28.8850,-90.0250,1019.1,1111122 
LOOP,urn:ioos:station:wmo:lopl1:1,2018-03-05T06:40:00Z,28.8850,-90.0250,1018.1,11111222 
LOOP,urn:ioos:station:wmo:lopl1:1,2018-03-05T07:40:00Z,28.8850,-90.0250,1018.1,11111222 
LOOP,urn:ioos:station:wmo:lopl1:1,2018-03-05T08:40:00Z,28.8850,-90.0250,1017.1,11111222 
LOOP,urn:ioos:station:wmo:lopl1:1,2018-03-05T09:40:00Z,28.8850,-90.0250,1016.1,1111122 
LOOP,urn:ioos:station:wmo:lopl1:1,2018-03-05T10:45:00Z,28.8850,-90.0250,1015.1,1111122 
LOOP,urn:ioos:station:wmo:lopl1:1,2018-03-05T11:45:00Z,28.8850,-90.0250,1016.1,1111122 
LOOP,urn:ioos:station:wmo:lopl1:1,2018-03-05T12:45:00Z,28.8850,-90.0250,1016.1,1111122 
LOOP,urn:ioos:station:wmo:lopl1:1,2018-03-05T13:45:00Z,28.8850,-90.0250,1017.1,1111122 
LOOP,urn:ioos:station:wmo:lopl1:1,2018-03-05T14:45:00Z,28.8850,-90.0250,1017.1,1111122 
LOOP,urn:ioos:station:wmo:lopl1:1,2018-03-05T16:15:00Z,28.8850,-90.0250,1017.1,1111122 
LOOP,urn:ioos:station:wmo:lopl1:1,2018-03-05T17:15:00Z,28.8850,-90.0250,1017.1,1111122 
LOOP,urn:ioos:station:wmo:lopl1:1,2018-03-05T18:15:00Z,28.8850,-90.0250,1017.1,1111122 
LOOP,urn:ioos:station:wmo:lopl1:1,2018-03-05T19:15:00Z,28.8850,-90.0250,1016.1,1111122 
LOOP,urn:ioos:station:wmo:lopl1:1,2018-03-05T20:15:00Z,28.8850,-90.0250,1015.1,1111122 
LOOP,urn:ioos:station:wmo:lopl1:1,2018-03-05T21:15:00Z,28.8850,-90.0250,1015.1,1111122 
LOOP,urn:ioos:station:wmo:lopl1:1,2018-03-05T22:15:00Z,28.8850,-90.0250,1015.1,1111122 
LOOP,urn:ioos:station:wmo:lopl1:1,2018-03-05T23:15:00Z,28.8850,-90.0250,1015.1,1111122 
LOOP,urn:ioos:station:wmo:lopl1:1,2018-03-06T00:15:00Z,28.8850,-90.0250,1015.1,1111122 
LOOP,urn:ioos:station:wmo:lopl1:1,2018-03-06T01:15:00Z,28.8850,-90.0250,1015.1,1111122 
LOOP,urn:ioos:station:wmo:lopl1:1,2018-03-06T02:15:00Z,28.8850,-90.0250,1015.1,1111122 
LOOP,urn:ioos:station:wmo:lopl1:1,2018-03-06T03:15:00Z,28.8850,-90.0250,1015.1,1111122 
LOOP,urn:ioos:station:wmo:lopl1:1,2018-03-06T04:25:00Z,28.8850,-90.0250,1015.1,1111122 
LOOP,urn:ioos:station:wmo:lopl1:1,2018-03-06T05:25:00Z,28.8850,-90.0250,1014.1,1111122 
LOOP,urn:ioos:station:wmo:lopl1:1,2018-03-06T06:25:00Z,28.8850,-90.0250,1014.1,1111122 
LOOP,urn:ioos:station:wmo:lopl1:1,2018-03-06T07:25:00Z,28.8850,-90.0250,1013.1,1111122 
LOOP,urn:ioos:station:wmo:lopl1:1,2018-03-06T08:25:00Z,28.8850,-90.0250,1013.1,1111122 
LOOP,urn:ioos:station:wmo:lopl1:1,2018-03-06T09:25:00Z,28.8850,-90.0250,1012.1,1111122 
LOOP,urn:ioos:station:wmo:lopl1:1,2018-03-06T10:25:00Z,28.8850,-90.0250,1012.1,1111122 
LOOP,urn:ioos:station:wmo:lopl1:1,2018-03-06T11:25:00Z,28.8850,-90.0250,1013.1,1111122 
LOOP,urn:ioos:station:wmo:lopl1:1,2018-03-06T12:25:00Z,28.8850,-90.0250,1013.1,1111122 
LOOP,urn:ioos:station:wmo:lopl1:1,2018-03-06T13:25:00Z,28.8850,-90.0250,1013.1,1111122 
LOOP,urn:ioos:station:wmo:lopl1:1,2018-03-06T14:30:00Z,28.8850,-90.0250,1014.1,1111122 
LOOP,urn:ioos:station:wmo:lopl1:1,2018-03-06T15:30:00Z,28.8850,-90.0250,1015.1,1111122 
LOOP,urn:ioos:station:wmo:lopl1:1,2018-03-06T16:30:00Z,28.8850,-90.0250,1015.1,1111122 
LOOP,urn:ioos:station:wmo:lopl1:1,2018-03-06T17:30:00Z,28.8850,-90.0250,1015.1,1111122 
LOOP,urn:ioos:station:wmo:lopl1:1,2018-03-06T18:30:00Z,28.8850,-90.0250,1014.1,1111122 
LOOP,urn:ioos:station:wmo:lopl1:1,2018-03-06T19:30:00Z,28.8850,-90.0250,1014.1,1111122 
LOOP,urn:ioos:station:wmo:lopl1:1,2018-03-06T20:30:00Z,28.8850,-90.0250,1014.1,1111122 
LOOP,urn:ioos:station:wmo:lopl1:1,2018-03-06T21:30:00Z,28.8850,-90.0250,1014.1,1111122 
LOOP,urn:ioos:station:wmo:lopl1:1,2018-03-06T22:30:00Z,28.8850,-90.0250,1014.1,1111122 
LOOP,urn:ioos:station:wmo:lopl1:1,2018-03-06T23:30:00Z,28.8850,-90.0250,1014.1,1111122 
LOOP,urn:ioos:station:wmo:lopl1:1,2018-03-07T00:30:00Z,28.8850,-90.0250,1015.1,1111122 
LOOP,urn:ioos:station:wmo:lopl1:1,2018-03-07T01:40:00Z,28.8850,-90.0250,1016.1,1111122 
LOOP,urn:ioos:station:wmo:lopl1:1,2018-03-07T02:40:00Z,28.8850,-90.0250,1017.1,1111122 
LOOP,urn:ioos:station:wmo:lopl1:1,2018-03-07T03:40:00Z,28.8850,-90.0250,1018.1,1111122 
LOOP,urn:ioos:station:wmo:lopl1:1,2018-03-07T04:40:00Z,28.8850,-90.0250,1018.1,1111122 
LOOP,urn:ioos:station:wmo:lopl1:1,2018-03-07T05:40:00Z,28.8850,-90.0250,1018.1,1111122 
LOOP,urn:ioos:station:wmo:lopl1:1,2018-03-07T06:40:00Z,28.8850,-90.0250,1018.1,1111122 
LOOP,urn:ioos:station:wmo:lopl1:1,2018-03-07T07:40:00Z,28.8850,-90.0250,1018.1,1111122 
LOOP,urn:ioos:station:wmo:lopl1:1,2018-03-07T08:40:00Z,28.8850,-90.0250,1018.1,1111122 
LOOP,urn:ioos:station:wmo:lopl1:1,2018-03-07T09:40:00Z,28.8850,-90.0250,1019.1,1111122 
LOOP,urn:ioos:station:wmo:lopl1:1,2018-03-07T10:40:00Z,28.8850,-90.0250,1019.1,1111122 
LOOP,urn:ioos:station:wmo:lopl1:1,2018-03-07T11:40:00Z,28.8850,-90.0250,1019.1,1111122 
LOOP,urn:ioos:station:wmo:lopl1:1,2018-03-07T12:40:00Z,28.8850,-90.0250,1020.1,1111122 
LOOP,urn:ioos:station:wmo:lopl1:1,2018-03-07T13:40:00Z,28.8850,-90.0250,1021.1,1111122 
LOOP,urn:ioos:station:wmo:lopl1:1,2018-03-07T14:40:00Z,28.8850,-90.0250,1022.1,1111122 
LOOP,urn:ioos:station:wmo:lopl1:1,2018-03-07T15:40:00Z,28.8850,-90.0250,1022.1,1111122 
LOOP,urn:ioos:station:wmo:lopl1:1,2018-03-07T16:40:00Z,28.8850,-90.0250,1022.1,1111122 
LOOP,urn:ioos:station:wmo:lopl1:1,2018-03-07T17:41:00Z,28.8850,-90.0250,1022.1,1111122 
LOOP,urn:ioos:station:wmo:lopl1:1,2018-03-07T18:41:00Z,28.8850,-90.0250,1022.1,1111122 
LOOP,urn:ioos:station:wmo:lopl1:1,2018-03-07T19:41:00Z,28.8850,-90.0250,1021.1,1111122 
LOOP,urn:ioos:station:wmo:lopl1:1,2018-03-07T20:46:00Z,28.8850,-90.0250,1021.1,1111122 
LOOP,urn:ioos:station:wmo:lopl1:1,2018-03-07T21:46:00Z,28.8850,-90.0250,1020.1,1111122 
LOOP,urn:ioos:station:wmo:lopl1:1,2018-03-07T22:46:00Z,28.8850,-90.0250,1020.1,1111122 
LOOP,urn:ioos:station:wmo:lopl1:1,2018-03-07T23:46:00Z,28.8850,-90.0250,1020.1,1111122 
LOOP,urn:ioos:station:wmo:lopl1:1,2018-03-08T00:46:00Z,28.8850,-90.0250,1020.1,1111122 
LOOP,urn:ioos:station:wmo:lopl1:1,2018-03-08T01:46:00Z,28.8850,-90.0250,1021.1,1111122 
LOOP,urn:ioos:station:wmo:lopl1:1,2018-03-08T02:46:00Z,28.8850,-90.0250,1022.1,1111122 
LOOP,urn:ioos:station:wmo:lopl1:1,2018-03-08T03:46:00Z,28.8850,-90.0250,1022.1,11111222 
LOOP,urn:ioos:station:wmo:lopl1:1,2018-03-08T04:46:00Z,28.8850,-90.0250,1022.1,1111122 
LOOP,urn:ioos:station:wmo:lopl1:1,2018-03-08T05:46:00Z,28.8850,-90.0250,1022.1,1111122 
LOOP,urn:ioos:station:wmo:lopl1:1,2018-03-08T06:46:00Z,28.8850,-90.0250,1022.1,1111122 
LOOP,urn:ioos:station:wmo:lopl1:1,2018-03-08T07:46:00Z,28.8850,-90.0250,1022.1,1111122 
LOOP,urn:ioos:station:wmo:lopl1:1,2018-03-08T08:46:00Z,28.8850,-90.0250,1022.1,1111122 
LOOP,urn:ioos:station:wmo:lopl1:1,2018-03-08T09:46:00Z,28.8850,-90.0250,1023.1,1111122 
LOOP,urn:ioos:station:wmo:lopl1:1,2018-03-08T10:46:00Z,28.8850,-90.0250,1023.1,1111122 
LOOP,urn:ioos:station:wmo:lopl1:1,2018-03-08T11:46:00Z,28.8850,-90.0250,1024.1,11111222 
LOOP,urn:ioos:station:wmo:lopl1:1,2018-03-08T12:46:00Z,28.8850,-90.0250,1024.1,1111122 
LOOP,urn:ioos:station:wmo:lopl1:1,2018-03-08T13:46:00Z,28.8850,-90.0250,1025.1,11111222 
LOOP,urn:ioos:station:wmo:lopl1:1,2018-03-08T14:46:00Z,28.8850,-90.0250,1025.1,1111122 
LOOP,urn:ioos:station:wmo:lopl1:1,2018-03-08T15:46:00Z,28.8850,-90.0250,1025.1,11111222 
LOOP,urn:ioos:station:wmo:lopl1:1,2018-03-08T16:46:00Z,28.8850,-90.0250,1025.1,1111122 
LOOP,urn:ioos:station:wmo:lopl1:1,2018-03-08T17:46:00Z,28.8850,-90.0250,1024.1,1111122 
LOOP,urn:ioos:station:wmo:lopl1:1,2018-03-08T18:46:00Z,28.8850,-90.0250,1023.1,1111122 
LOOP,urn:ioos:station:wmo:lopl1:1,2018-03-08T19:46:00Z,28.8850,-90.0250,1023.1,1111122 
LOOP,urn:ioos:station:wmo:lopl1:1,2018-03-08T20:46:00Z,28.8850,-90.0250,1022.1,1111122 
LOOP,urn:ioos:station:wmo:lopl1:1,2018-03-08T21:46:00Z,28.8850,-90.0250,1022.1,1111122 
LOOP,urn:ioos:station:wmo:lopl1:1,2018-03-08T22:46:00Z,28.8850,-90.0250,1022.1,1111122 
LOOP,urn:ioos:station:wmo:lopl1:1,2018-03-08T23:46:00Z,28.8850,-90.0250,1022.1,1111122 
LOOP,urn:ioos:station:wmo:lopl1:1,2018-03-09T00:46:00Z,28.8850,-90.0250,1022.1,1111122 
LOOP,urn:ioos:station:wmo:lopl1:1,2018-03-09T01:46:00Z,28.8850,-90.0250,1023.1,1111122 
LOOP,urn:ioos:station:wmo:lopl1:1,2018-03-09T02:46:00Z,28.8850,-90.0250,1023.1,1111122 
LOOP,urn:ioos:station:wmo:lopl1:1,2018-03-09T03:46:00Z,28.8850,-90.0250,1023.1,1111122 
LOOP,urn:ioos:station:wmo:lopl1:1,2018-03-09T04:46:00Z,28.8850,-90.0250,1022.1,1111122 
LOOP,urn:ioos:station:wmo:lopl1:1,2018-03-09T05:46:00Z,28.8850,-90.0250,1022.1,1111122 
LOOP,urn:ioos:station:wmo:lopl1:1,2018-03-09T06:46:00Z,28.8850,-90.0250,1022.1,11111222 
LOOP,urn:ioos:station:wmo:lopl1:1,2018-03-09T07:51:00Z,28.8850,-90.0250,1021.1,1111122 
LOOP,urn:ioos:station:wmo:lopl1:1,2018-03-09T08:51:00Z,28.8850,-90.0250,1021.1,1111122 
LOOP,urn:ioos:station:wmo:lopl1:1,2018-03-09T09:51:00Z,28.8850,-90.0250,1021.1,1111122 
LOOP,urn:ioos:station:wmo:lopl1:1,2018-03-09T10:51:00Z,28.8850,-90.0250,1021.1,1111122 
LOOP,urn:ioos:station:wmo:lopl1:1,2018-03-09T11:51:00Z,28.8850,-90.0250,1021.1,1111122 
LOOP,urn:ioos:station:wmo:lopl1:1,2018-03-09T12:51:00Z,28.8850,-90.0250,1021.1,1111122 
LOOP,urn:ioos:station:wmo:lopl1:1,2018-03-09T13:51:00Z,28.8850,-90.0250,1021.1,1111122 
LOOP,urn:ioos:station:wmo:lopl1:1,2018-03-09T14:51:00Z,28.8850,-90.0250,1022.1,1111122 
LOOP,urn:ioos:station:wmo:lopl1:1,2018-03-09T15:51:00Z,28.8850,-90.0250,1022.1,1111122 
LOOP,urn:ioos:station:wmo:lopl1:1,2018-03-09T16:51:00Z,28.8850,-90.0250,1021.1,1111122 
LOOP,urn:ioos:station:wmo:lopl1:1,2018-03-09T17:51:00Z,28.8850,-90.0250,1021.1,1111122 
LOOP,urn:ioos:station:wmo:lopl1:1,2018-03-09T18:51:00Z,28.8850,-90.0250,1020.1,1111122 
LOOP,urn:ioos:station:wmo:lopl1:1,2018-03-09T19:51:00Z,28.8850,-90.0250,1019.1,1111122 
LOOP,urn:ioos:station:wmo:lopl1:1,2018-03-09T20:51:00Z,28.8850,-90.0250,1019.1,1111122 
LOOP,urn:ioos:station:wmo:lopl1:1,2018-03-09T21:51:00Z,28.8850,-90.0250,1018.1,1111122 
LOOP,urn:ioos:station:wmo:lopl1:1,2018-03-09T22:51:00Z,28.8850,-90.0250,1018.1,1111122 
LOOP,urn:ioos:station:wmo:lopl1:1,2018-03-09T23:51:00Z,28.8850,-90.0250,1017.1,1111122 
LOOP,urn:ioos:station:wmo:lopl1:1,2018-03-10T00:51:00Z,28.8850,-90.0250,1017.1,1111122 
LOOP,urn:ioos:station:wmo:lopl1:1,2018-03-10T01:51:00Z,28.8850,-90.0250,1017.1,1111122 
LOOP,urn:ioos:station:wmo:lopl1:1,2018-03-10T02:51:00Z,28.8850,-90.0250,1017.1,1111122 
LOOP,urn:ioos:station:wmo:lopl1:1,2018-03-10T03:51:00Z,28.8850,-90.0250,1017.1,1111122 
LOOP,urn:ioos:station:wmo:lopl1:1,2018-03-10T05:06:00Z,28.8850,-90.0250,1016.1,1111122 
LOOP,urn:ioos:station:wmo:lopl1:1,2018-03-10T06:06:00Z,28.8850,-90.0250,1016.1,1111122 
LOOP,urn:ioos:station:wmo:lopl1:1,2018-03-10T07:06:00Z,28.8850,-90.0250,1015.1,1111122 
LOOP,urn:ioos:station:wmo:lopl1:1,2018-03-10T08:06:00Z,28.8850,-90.0250,1015.1,1111122 
LOOP,urn:ioos:station:wmo:lopl1:1,2018-03-10T09:06:00Z,28.8850,-90.0250,1014.1,1111122 
LOOP,urn:ioos:station:wmo:lopl1:1,2018-03-10T10:06:00Z,28.8850,-90.0250,1013.1,1111122 
LOOP,urn:ioos:station:wmo:lopl1:1,2018-03-10T11:06:00Z,28.8850,-90.0250,1014.1,1111122 
LOOP,urn:ioos:station:wmo:lopl1:1,2018-03-10T12:06:00Z,28.8850,-90.0250,1014.1,1111122 
LOOP,urn:ioos:station:wmo:lopl1:1,2018-03-10T13:06:00Z,28.8850,-90.0250,1014.1,1111122 
LOOP,urn:ioos:station:wmo:lopl1:1,2018-03-10T14:06:00Z,28.8850,-90.0250,1015.1,1111122 
LOOP,urn:ioos:station:wmo:lopl1:1,2018-03-10T15:06:00Z,28.8850,-90.0250,1015.1,1111122 
LOOP,urn:ioos:station:wmo:lopl1:1,2018-03-10T16:21:00Z,28.8850,-90.0250,1014.1,1111122 
LOOP,urn:ioos:station:wmo:lopl1:1,2018-03-10T17:21:00Z,28.8850,-90.0250,1013.1,1111122 
LOOP,urn:ioos:station:wmo:lopl1:1,2018-03-10T18:21:00Z,28.8850,-90.0250,1013.1,1111122 
LOOP,urn:ioos:station:wmo:lopl1:1,2018-03-10T19:21:00Z,28.8850,-90.0250,1012.1,1111122 
LOOP,urn:ioos:station:wmo:lopl1:1,2018-03-10T20:21:00Z,28.8850,-90.0250,1012.1,1111122 
LOOP,urn:ioos:station:wmo:lopl1:1,2018-03-10T21:21:00Z,28.8850,-90.0250,1012.1,1111122 
LOOP,urn:ioos:station:wmo:lopl1:1,2018-03-10T22:21:00Z,28.8850,-90.0250,1012.1,1111122 
LOOP,urn:ioos:station:wmo:lopl1:1,2018-03-10T23:21:00Z,28.8850,-90.0250,1012.1,1111122 
LOOP,urn:ioos:station:wmo:lopl1:1,2018-03-11T00:51:00Z,28.8850,-90.0250,1012.1,1111122 
LOOP,urn:ioos:station:wmo:lopl1:1,2018-03-11T01:51:00Z,28.8850,-90.0250,1012.1,1111122 
LOOP,urn:ioos:station:wmo:lopl1:1,2018-03-11T02:51:00Z,28.8850,-90.0250,1012.1,1111122 
LOOP,urn:ioos:station:wmo:lopl1:1,2018-03-11T03:51:00Z,28.8850,-90.0250,1012.1,1111122 
LOOP,urn:ioos:station:wmo:lopl1:1,2018-03-11T04:51:00Z,28.8850,-90.0250,1012.1,1111122 
LOOP,urn:ioos:station:wmo:lopl1:1,2018-03-11T05:51:00Z,28.8850,-90.0250,1012.1,1111122 
LOOP,urn:ioos:station:wmo:lopl1:1,2018-03-11T06:51:00Z,28.8850,-90.0250,1011.1,1111122 
LOOP,urn:ioos:station:wmo:lopl1:1,2018-03-11T07:51:00Z,28.8850,-90.0250,1011.1,1111122 
LOOP,urn:ioos:station:wmo:lopl1:1,2018-03-11T08:51:00Z,28.8850,-90.0250,1010.1,1111122 
LOOP,urn:ioos:station:wmo:lopl1:1,2018-03-11T09:51:00Z,28.8850,-90.0250,1010.1,1111122 
LOOP,urn:ioos:station:wmo:lopl1:1,2018-03-11T10:51:00Z,28.8850,-90.0250,1010.1,1111122 
LOOP,urn:ioos:station:wmo:lopl1:1,2018-03-11T11:51:00Z,28.8850,-90.0250,1011.1,1111122 
LOOP,urn:ioos:station:wmo:lopl1:1,2018-03-11T12:51:00Z,28.8850,-90.0250,1011.1,1111122 
LOOP,urn:ioos:station:wmo:lopl1:1,2018-03-11T13:51:00Z,28.8850,-90.0250,1011.1,1111122 
LOOP,urn:ioos:station:wmo:lopl1:1,2018-03-11T14:51:00Z,28.8850,-90.0250,1012.1,1111122 
LOOP,urn:ioos:station:wmo:lopl1:1,2018-03-11T15:51:00Z,28.8850,-90.0250,1012.1,1111122 
LOOP,urn:ioos:station:wmo:lopl1:1,2018-03-11T16:56:00Z,28.8850,-90.0250,1012.1,1111122 
LOOP,urn:ioos:station:wmo:lopl1:1,2018-03-11T17:56:00Z,28.8850,-90.0250,1011.1,1111122 
LOOP,urn:ioos:station:wmo:lopl1:1,2018-03-11T18:56:00Z,28.8850,-90.0250,1011.1,1111122 
LOOP,urn:ioos:station:wmo:lopl1:1,2018-03-11T19:56:00Z,28.8850,-90.0250,1011.1,1111122 
LOOP,urn:ioos:station:wmo:lopl1:1,2018-03-11T20:56:00Z,28.8850,-90.0250,1011.1,1111122 
LOOP,urn:ioos:station:wmo:lopl1:1,2018-03-11T21:56:00Z,28.8850,-90.0250,1010.1,1111122 
LOOP,urn:ioos:station:wmo:lopl1:1,2018-03-11T22:56:00Z,28.8850,-90.0250,1010.1,1111122 
LOOP,urn:ioos:station:wmo:lopl1:1,2018-03-11T23:56:00Z,28.8850,-90.0250,1011.1,1111122 
LOOP,urn:ioos:station:wmo:lopl1:1,2018-03-12T00:56:00Z,28.8850,-90.0250,1011.1,1111122 
LOOP,urn:ioos:station:wmo:lopl1:1,2018-03-12T01:56:00Z,28.8850,-90.0250,1013.1,1111122 
LOOP,urn:ioos:station:wmo:lopl1:1,2018-03-12T02:56:00Z,28.8850,-90.0250,1013.1,1111122 
LOOP,urn:ioos:station:wmo:lopl1:1,2018-03-12T03:56:00Z,28.8850,-90.0250,1014.1,1111122 
LOOP,urn:ioos:station:wmo:lopl1:1,2018-03-12T04:56:00Z,28.8850,-90.0250,1014.1,1111122 
LOOP,urn:ioos:station:wmo:lopl1:1,2018-03-12T05:56:00Z,28.8850,-90.0250,1014.1,1111122 
LOOP,urn:ioos:station:wmo:lopl1:1,2018-03-12T06:56:00Z,28.8850,-90.0250,1014.1,1111122 
LOOP,urn:ioos:station:wmo:lopl1:1,2018-03-12T07:56:00Z,28.8850,-90.0250,1014.1,1111122 
LOOP,urn:ioos:station:wmo:lopl1:1,2018-03-12T08:56:00Z,28.8850,-90.0250,1015.1,1111122 